Location: Wald
(31.7579°N, 86.6655°W)
Time: 21:02:37
(UTC+00:00)

USA 267 - Pass Details

Date: 14 July 2020
Orbit: 1102 x 1106 km, 123.0° (Epoch: 12 August)

Event Time Altitude Azimuth Distance (km) Brightness Sun altitude
Exits shadow 05:54:07 45° 50° (NE) 1,457 4.0 -36.6°
Maximum altitude 05:54:28 46° 41° (NE) 1,449 4.0 -36.6°
Drops below altitude 10° 06:00:37 10° 331° (NNW) 2,960 6.1 -36.6°
Sets 06:03:12 0° 325° (NW) 3,920 6.8 -36.6°
